Regional Weather Roundup
Issued by NWS

Home | Current Version | Previous Version | Graphics & Text | Print | Product List | Glossary Off
Versions: 1 2 3 4 5 6 7 8 9 10 11 12 13 14 15 16 17 18 19 20 21 22 23 24 25 26 27 28 29 30 31 32 33 34 35 36 37 38 39 40 41 42 43 44 45 46 47 48 49 50

000
ASUS43 KIND 022309
RWRIN

WEATHER ROUNDUP FOR INDIANA
NATIONAL WEATHER SERVICE INDIANAPOLIS IN
600 PM EST MON MAR 02 2015

NOTE: "FAIR" INDICATES FEW OR NO CLOUDS BELOW 12,000 FEET WITH NO
SIGNIFICANT WEATHER AND/OR OBSTRUCTIONS TO VISIBILITY.

* - STATION DOES NOT REPORT WEATHER SUCH AS PRECIPITATION OR FOG.

+ - STATION NOT QUALITY CONTROLLED BY THE NATIONAL WEATHER SERVICE.
    USE DATA WITH CAUTION...ESPECIALLY DEWPOINT AND RELATIVE
    HUMIDITY OBSERVATIONS.

INZ001>003-010>013-019-020-030000-
NORTHWEST INDIANA

CITY           SKY/WX    TMP DP  RH WIND       PRES   REMARKS
GARY /AIRPORT/ CLOUDY    28  16  59 E7        30.42F WCI  21
KNOX *+          N/A     28  -4  24 CALM      30.41F
LA PORTE +     PTCLDY    28  16  60 CALM      30.41F
MICHIGAN CITY+ PTCLDY    28  12  50 CALM      30.42F
MONTICELLO +   MOCLDY    26  15  61 SE3       30.42F
RENSSELAER +   MOCLDY    28  19  69 S3        30.43F
VALPARAISO     PTCLDY    26  12  55 S5        30.41F WCI  20

$$

LMZ046-743>745-030000-
SOUTHERN LAKE MICHIGAN

STATION/POSITION TIME  TEMP WIND        PRES
                       AIR  DIR/SP/G
                 (UTC) (F)  (DEG/KT/KT) (MB)
MICHIGAN CITY    2300   23   40/  6/  6   N/A

$$

INZ004-005-014>016-021>024-030000-
NORTH CENTRAL INDIANA

CITY           SKY/WX    TMP DP  RH WIND       PRES   REMARKS
ELKHART        CLEAR     28   9  43 W3        30.42F
GOSHEN         PTCLDY    25  14  63 S5        30.41F WCI  19
LOGANSPORT +   CLEAR     21  14  73 S5        30.44S WCI  15
PERU/GRISSOM   PTCLDY    24  13  64 S5        30.41F WCI  18
ROCHESTER +    PTCLDY    28  12  50 SW5       30.43S WCI  23
SOUTH BEND     PTCLDY    28  14  55 NW3       30.41F
WARSAW +       PTCLDY    28  14  54 CALM      30.42S

$$

INZ006>009-017-018-025>027-030000-
NORTHEAST INDIANA

CITY           SKY/WX    TMP DP  RH WIND       PRES   REMARKS
ANGOLA *+      CLEAR     27  14  59 CALM      30.40F
AUBURN +       PTCLDY    28  12  50 N3        30.42S
FORT WAYNE     MOCLDY    22  13  68 SW5       30.43S WCI  16
HUNTINGTON +   CLEAR     27   8  43 CALM      30.42S

$$

INZ028-029-035-036-043>045-051>053-030000-
WEST CENTRAL INDIANA

CITY           SKY/WX    TMP DP  RH WIND       PRES   REMARKS
CRAWFORDSVL +  CLOUDY    25  13  59 CALM      30.43S
GREENCASTLE +  CLOUDY    30  12  47 CALM      30.42F
LAFAYETTE      CLOUDY    27  15  61 S6        30.44S WCI  20
TERRE HAUTE    MOCLDY    32  15  49 S3        30.43F

$$

INZ030>032-037>040-046>048-054>057-064-065-030000-
CENTRAL INDIANA

CITY           SKY/WX    TMP DP  RH WIND       PRES   REMARKS
CP ATTERBURY + PTCLDY    32  14  47 CALM      30.44F
COLUMBUS       CLEAR     28  16  59 N5        30.45S WCI  23
FRANKFORT +    PTCLDY    22  17  81 E5        30.45F WCI  16
INDIANAPOLIS   MOCLDY    27  14  58 SE8       30.42F WCI  19
-EAGLE CREEK   PTCLDY    29  16  58 SE6       30.42F WCI  23
KOKOMO *+      CLEAR     19  12  73 S6        30.44S WCI  11
MARION +       CLEAR     21  13  70 SW3       30.44S HAZE
MT COMFORT *+  PTCLDY    25   5  42 CALM      30.44F
SHELBYVILLE    PTCLDY    27  15  61 NE6       30.44S WCI  20
ZIONSVILLE +   PTCLDY    24  12  61 E3        30.43F

$$

INZ033-034-041-042-049-050-058-059-030000-
EAST CENTRAL INDIANA

CITY           SKY/WX    TMP DP  RH WIND       PRES   REMARKS
MUNCIE         CLEAR     25  11  55 CALM      30.43S

$$

INZ060-061-067>069-081>083-085>088-030000-
SOUTHWEST INDIANA

CITY           SKY/WX    TMP DP  RH WIND       PRES   REMARKS
EVANSVILLE     CLOUDY    36  21  54 N8        30.40F
HUNTINGBURG *+ MOCLDY    36  18  48 NE8       30.41F
WASHINGTON +   PTCLDY    31  18  58 NE3       30.42F

$$

INZ062-063-066-070>080-084-089>092-030000-
SOUTH CENTRAL AND SOUTHEAST INDIANA

CITY           SKY/WX    TMP DP  RH WIND       PRES   REMARKS
BLOOMINGTON    PTCLDY    35  17  47 SE8       30.40F WCI  29
NORTH VERNON + PTCLDY    32  19  59 N6        30.43S WCI  26
SEYMOUR +      CLEAR     32  16  51 N5        30.44S WCI  27

$$



USA.gov is the U.S. government's official web portal to all federal, state and local government web resources and services.